Current weather by "City, St" or "zip code"  
 

Current Conditions: Westerly, Westerly State Airport, RI

Fog/Mist


61.0 F

Last Updated on May 21 2022, 2:53 am EDT
Humidity: 97%
Wind Speed: SE 8.1 mph
Barometer 29.97 in
Dewpoint: 60.1 F
Visibility: 1.75 mi
Precip: --
Heat Index: NA
Wind Chill: 60 F
Current conditions at:

Westerly, Westerly State Airport, RI (KWST)

Lat: 41.34972 Lon: 71.79889

Local Radar Image active severe weather and emergency alerts image image weather storm and storm spotter reports image weather observation monitoring service image
Local
Radar
Active
Alerts
Storm Reports Obs
Monitoring

Sign-up For Email & Text Message Weather Alert Notification Services



Advertise Here

Observation History for Westerly, Westerly State Airport, RI


Time Wind
(mph)
Vis
(mi)
Weather Precip (in) Temperature (F) Relative
Humidity
Wind
Chill
(F)
Heat
Index
(F)
Pressure
Air Dwpt altimeter
(in)
sea level
(mb)
Rmks
2:53 am EDT SE 8.1 1.75 Fog/Mist -- 61.0 60.1 97% 60 NA 29.97 1014.8
1:53 am EDT SE 6.9 9.00 Overcast Trace 63.0 61.0 93% 63 NA 29.99 1015.6
12:53 am EDT SE 9.2 2.00 Thunderstorm in Vicinity Heavy Rain Fog/Mist 00.17 61.0 60.1 97% 60 NA 30.00 1015.7
11:53 pm EDT SE 5.8 9.00 Light Rain 00.22 62.0 61.0 96% 62 NA 30.01 1016.2
10:53 pm EDT E 5.8 10.00 Overcast 00.05 60.0 59.0 96% 60 NA 30.01 1016.1
9:53 pm EDT E 13.8 7.00 Light Rain 00.01 59.0 57.0 93% 56 NA 30.02 1016.6
8:53 pm EDT SE 9.2 10.00 Light Rain Trace 58.0 55.9 93% 56 NA 30.03 1016.7
7:53 pm EDT N 0.0 10.00 Overcast -- 58.0 55.0 90% NA NA 30.04 1017.2
5:53 pm EDT E 8.1 10.00 Overcast -- 60.0 54.0 80% 59 NA 30.03 1016.7
4:53 pm EDT E 6.9 10.00 Overcast -- 63.0 55.0 76% 63 NA 30.02 1016.4
3:53 pm EDT SE 6.9 10.00 Overcast -- 62.0 55.0 78% 62 NA 30.02 1016.5
2:53 pm EDT SE 4.6 10.00 Mostly Cloudy -- 62.0 55.9 80% 62 NA 30.04 1017.2
11:53 am EDT S 6.9 10.00 Fair -- 62.0 54.0 75% 62 NA 30.06 1017.7
10:53 am EDT S 9.2 10.00 Mostly Cloudy -- 62.0 54.0 75% 61 NA 30.04 1017.2
9:53 am EDT SE 4.6 10.00 Mostly Cloudy -- 62.0 54.0 75% 62 NA 30.01 1016.3
8:53 am EDT N 0.0 10.00 Mostly Cloudy -- 60.0 55.0 84% NA NA 30.00 1015.9
7:53 am EDT N 0.0 1.25 Fog/Mist -- 53.0 53.1 100% NA NA 29.99 1015.3
5:53 am EDT N 0.0 0.15 Fog -- 51.0 51.1 100% NA NA 29.92 1013.0

Regional Weather Observation


Willimantic, Windham Airport, CT (KIJD)

Fog/Mist
62.0 F

Westerly, Westerly State Airport, RI (KWST)

Fog/Mist
61.0 F

Montauk, Montauk Airport, NY (KMTP)

NULL
59.0 F

Chester, Chester Airport, CT (KSNC)

Fog
61.0 F

Providence, Theodore Francis Green State Airport, RI (KPVD)

Fog/Mist
62.0 F

Block Island State Airport, RI (KBID)

Thunderstorm in Vicinity Light Rain Fog
57.0 F

Advertise Here


Advertise Here